Time,TemperatureF,DewpointF,PressureIn,WindDirection,WindDirectionDegrees,WindSpeedMPH,WindSpeedGustMPH,Humidity,HourlyPrecipIn,Conditions,Clouds,dailyrainin,SoftwareType,DateUTC
2015-07-03 00:03:00,58.0,48.0,-100.00,South,178,12.0,18.0,70,-99.99,,,-99.99,,2015-07-03 06:03:00,
2015-07-03 00:12:00,58.0,49.0,-100.00,SSE,156,10.0,17.0,72,-99.99,,,-99.99,,2015-07-03 06:12:00,
2015-07-03 00:34:00,58.0,49.0,-100.00,SSE,156,10.0,17.0,72,-99.99,,,-99.99,,2015-07-03 06:34:00,
2015-07-03 00:44:00,58.0,49.0,-100.00,SSE,156,10.0,17.0,72,-99.99,,,-99.99,,2015-07-03 06:44:00,
2015-07-03 00:53:00,58.0,49.0,-100.00,SSE,156,10.0,17.0,72,-99.99,,,-99.99,,2015-07-03 06:53:00,
2015-07-03 01:03:00,58.0,49.0,-100.00,SSE,156,10.0,17.0,72,-99.99,,,-99.99,,2015-07-03 07:03:00,
2015-07-03 01:12:00,57.0,49.0,-100.00,SSE,150,9.0,16.0,74,-99.99,,,-99.99,,2015-07-03 07:12:00,
2015-07-03 01:33:00,57.0,49.0,-100.00,SSE,150,9.0,16.0,74,-99.99,,,-99.99,,2015-07-03 07:33:00,
2015-07-03 01:44:00,57.0,49.0,-100.00,SSE,150,9.0,16.0,74,-99.99,,,-99.99,,2015-07-03 07:44:00,
2015-07-03 01:53:00,57.0,49.0,-100.00,SSE,150,9.0,16.0,74,-99.99,,,-99.99,,2015-07-03 07:53:00,
2015-07-03 02:03:00,57.0,49.0,-100.00,SSE,150,9.0,16.0,74,-99.99,,,-99.99,,2015-07-03 08:03:00,
2015-07-03 02:12:00,56.0,49.0,-100.00,SSE,163,4.0,11.0,76,-99.99,,,-99.99,,2015-07-03 08:12:00,
2015-07-03 02:33:00,56.0,49.0,-100.00,SSE,163,4.0,11.0,76,-99.99,,,-99.99,,2015-07-03 08:33:00,
2015-07-03 02:44:00,56.0,49.0,-100.00,SSE,163,4.0,11.0,76,-99.99,,,-99.99,,2015-07-03 08:44:00,
2015-07-03 02:53:00,56.0,49.0,-100.00,SSE,163,4.0,11.0,76,-99.99,,,-99.99,,2015-07-03 08:53:00,
2015-07-03 03:03:00,56.0,49.0,-100.00,SSE,163,4.0,11.0,76,-99.99,,,-99.99,,2015-07-03 09:03:00,
2015-07-03 03:12:00,56.0,47.0,-100.00,West,262,2.0,6.0,73,-99.99,,,-99.99,,2015-07-03 09:12:00,
2015-07-03 03:34:00,56.0,47.0,-100.00,West,262,2.0,6.0,73,-99.99,,,-99.99,,2015-07-03 09:34:00,
2015-07-03 03:44:00,56.0,47.0,-100.00,West,262,2.0,6.0,73,-99.99,,,-99.99,,2015-07-03 09:44:00,
2015-07-03 03:53:00,56.0,47.0,-100.00,West,262,2.0,6.0,73,-99.99,,,-99.99,,2015-07-03 09:53:00,
2015-07-03 04:03:00,56.0,47.0,-100.00,West,262,2.0,6.0,73,-99.99,,,-99.99,,2015-07-03 10:03:00,
2015-07-03 04:12:00,56.0,49.0,-100.00,SE,144,4.0,6.0,76,-99.99,,,-99.99,,2015-07-03 10:12:00,
2015-07-03 04:33:00,56.0,49.0,-100.00,SE,144,4.0,6.0,76,-99.99,,,-99.99,,2015-07-03 10:33:00,
2015-07-03 04:44:00,56.0,49.0,-100.00,SE,144,4.0,6.0,76,-99.99,,,-99.99,,2015-07-03 10:44:00,
2015-07-03 04:53:00,56.0,49.0,-100.00,SE,144,4.0,6.0,76,-99.99,,,-99.99,,2015-07-03 10:53:00,
2015-07-03 05:03:00,56.0,49.0,-100.00,SE,144,4.0,6.0,76,-99.99,,,-99.99,,2015-07-03 11:03:00,
2015-07-03 05:12:00,56.0,47.0,-100.00,North,6,3.0,5.0,73,-99.99,,,-99.99,,2015-07-03 11:12:00,
2015-07-03 05:34:00,56.0,47.0,-100.00,North,6,3.0,5.0,73,-99.99,,,-99.99,,2015-07-03 11:34:00,
2015-07-03 05:44:00,56.0,47.0,-100.00,North,6,3.0,5.0,73,-99.99,,,-99.99,,2015-07-03 11:44:00,
2015-07-03 05:54:00,56.0,47.0,-100.00,North,6,3.0,5.0,73,-99.99,,,-99.99,,2015-07-03 11:54:00,
2015-07-03 06:03:00,56.0,47.0,-100.00,North,6,3.0,5.0,73,-99.99,,,-99.99,,2015-07-03 12:03:00,
2015-07-03 06:12:00,56.0,48.0,-100.00,NNE,14,7.0,8.0,75,-99.99,,,-99.99,,2015-07-03 12:12:00,
2015-07-03 06:34:00,56.0,48.0,-100.00,NNE,14,7.0,8.0,75,-99.99,,,-99.99,,2015-07-03 12:34:00,
2015-07-03 06:44:00,56.0,48.0,-100.00,NNE,14,7.0,8.0,75,-99.99,,,-99.99,,2015-07-03 12:44:00,
2015-07-03 06:54:00,56.0,48.0,-100.00,NNE,14,7.0,8.0,75,-99.99,,,-99.99,,2015-07-03 12:54:00,
2015-07-03 07:03:00,56.0,48.0,-100.00,NNE,14,7.0,8.0,75,-99.99,,,-99.99,,2015-07-03 13:03:00,
2015-07-03 07:12:00,58.0,48.0,-100.00,North,352,8.0,10.0,70,-99.99,,,-99.99,,2015-07-03 13:12:00,
2015-07-03 07:34:00,58.0,48.0,-100.00,North,352,8.0,10.0,70,-99.99,,,-99.99,,2015-07-03 13:34:00,
2015-07-03 07:44:00,58.0,48.0,-100.00,North,352,8.0,10.0,70,-99.99,,,-99.99,,2015-07-03 13:44:00,
2015-07-03 07:53:00,58.0,48.0,-100.00,North,352,8.0,10.0,70,-99.99,,,-99.99,,2015-07-03 13:53:00,
2015-07-03 08:03:00,58.0,48.0,-100.00,North,352,8.0,10.0,70,-99.99,,,-99.99,,2015-07-03 14:03:00,
2015-07-03 08:12:00,63.0,51.0,-100.00,SE,135,4.0,10.0,64,-99.99,,,-99.99,,2015-07-03 14:12:00,
2015-07-03 08:34:00,63.0,51.0,-100.00,SE,135,4.0,10.0,64,-99.99,,,-99.99,,2015-07-03 14:34:00,
2015-07-03 08:44:00,63.0,51.0,-100.00,SE,135,4.0,10.0,64,-99.99,,,-99.99,,2015-07-03 14:44:00,
2015-07-03 08:54:00,63.0,51.0,-100.00,SE,135,4.0,10.0,64,-99.99,,,-99.99,,2015-07-03 14:54:00,
2015-07-03 09:03:00,63.0,51.0,-100.00,SE,135,4.0,10.0,64,-99.99,,,-99.99,,2015-07-03 15:03:00,
2015-07-03 09:12:00,67.0,54.0,-100.00,SSE,149,4.0,7.0,64,-99.99,,,-99.99,,2015-07-03 15:12:00,
2015-07-03 09:34:00,67.0,54.0,-100.00,SSE,149,4.0,7.0,64,-99.99,,,-99.99,,2015-07-03 15:34:00,
2015-07-03 09:44:00,67.0,54.0,-100.00,SSE,149,4.0,7.0,64,-99.99,,,-99.99,,2015-07-03 15:44:00,
2015-07-03 09:54:00,67.0,54.0,-100.00,SSE,149,4.0,7.0,64,-99.99,,,-99.99,,2015-07-03 15:54:00,
2015-07-03 10:04:00,67.0,54.0,-100.00,SSE,149,4.0,7.0,64,-99.99,,,-99.99,,2015-07-03 16:04:00,
2015-07-03 10:34:00,69.0,51.0,-100.00,SSW,201,5.0,9.0,53,-99.99,,,-99.99,,2015-07-03 16:34:00,